Frederick, MD

2:28 AM EDT on March 25, 2017 (GMT -0400)
Frederick Municipal

Weather History for KFDK - December, 2013

Change the Weather History Date:

Friday, December 20, 2013

  Actual Average (KHGR) Record (KHGR)
Temperature  
Mean Temperature 40 °F -  
Max Temperature 48 °F 38 °F 55 °F (1997)
Min Temperature 32 °F 24 °F 6 °F (2004)
Degree Days  
Heating Degree Days 25    
Moisture  
Dew Point 34 °F    
Average Humidity 89    
Maximum Humidity 100    
Minimum Humidity 62    
Precipitation  
Precipitation 0.00 in - - ()
Sea Level Pressure  
Sea Level Pressure 30.08 in    
Wind  
Wind Speed 1 mph (SSW)    
Max Wind Speed 7 mph    
Max Gust Speed -    
Visibility 10 miles    
Events      
Averages and records for this station are not official NWS values.
T = Trace of Precipitation, MM = Missing Value Source: NWS Daily Summary

Daily Weather History Graph

Daily Weather History Graph

Search for Another Location

Airport or City:

Trip Planner

Search our weather history database for the weather conditions in past years. The results will help you decide how hot, cold, wet, or windy it might be!

Date:

Astronomy

Dec. 20, 2013 Rise Set
Actual Time 7:25 AM EST 4:48 PM EST
Civil Twilight 6:55 AM EST 5:19 PM EST
Nautical Twilight 6:21 AM EST 5:52 PM EST
Astronomical Twilight 5:48 AM EST 6:25 PM EST
Moon 8:06 PM EST (12/20) 9:19 AM EST (12/20)
Length of Visible Light 10h 23m
Length of Day
9h 23m
Waning Gibbous, 90% of the Moon is Illuminated
Dec 20
Waning Gibbous
Dec 25
Last Quarter
Jan 1
New
Jan 7
First Quarter
Jan 15
Full

Hourly Weather History & Observations

Time (EST) Temp. Windchill Dew Point Humidity Pressure Visibility Wind Dir Wind Speed Gust Speed Precip Events Conditions
12:05 AM 32.0 °F - 32.0 °F 100% 30.12 in 10.0 mi Calm Calm - N/A   Clear
12:25 AM 32.0 °F - 32.0 °F 100% 30.12 in 10.0 mi Calm Calm - N/A   Clear
12:45 AM 32.0 °F - 32.0 °F 100% 30.11 in 10.0 mi Calm Calm - N/A   Clear
1:05 AM 32.0 °F - 32.0 °F 100% 30.11 in 10.0 mi Calm Calm - N/A   Clear
1:25 AM 33.8 °F - 32.0 °F 93% 30.11 in 10.0 mi Calm Calm - N/A   Clear
1:45 AM 33.8 °F - 32.0 °F 93% 30.10 in 10.0 mi Calm Calm - N/A   Clear
2:05 AM 32.0 °F - 32.0 °F 100% 30.11 in 10.0 mi Calm Calm - N/A   Clear
2:25 AM 32.0 °F - 32.0 °F 100% 30.11 in 10.0 mi Calm Calm - N/A   Clear
2:45 AM 32.0 °F - 32.0 °F 100% 30.12 in 10.0 mi Calm Calm - N/A   Clear
3:10 AM 32.0 °F - 32.0 °F 100% 30.11 in 10.0 mi Calm Calm - N/A   Clear
3:30 AM 32.0 °F - 32.0 °F 100% 30.11 in 10.0 mi Calm Calm - N/A   Clear
3:50 AM 32.0 °F - 32.0 °F 100% 30.11 in 10.0 mi Calm Calm - N/A   Clear
4:10 AM 32.0 °F - 32.0 °F 100% 30.11 in 10.0 mi Calm Calm - N/A   Clear
4:30 AM 32.0 °F 28.7 °F 32.0 °F 100% 30.11 in 10.0 mi SSE 3.5 mph - N/A   Clear
4:50 AM 32.0 °F - 32.0 °F 100% 30.11 in 10.0 mi Calm Calm - N/A   Clear
5:10 AM 32.0 °F - 32.0 °F 100% 30.11 in 10.0 mi Calm Calm - N/A   Clear
5:30 AM 32.0 °F - 32.0 °F 100% 30.11 in 10.0 mi Calm Calm - N/A   Clear
5:40 AM 32.0 °F - 32.0 °F 100% 30.11 in 10.0 mi Calm Calm - N/A   Clear
6:45 AM 33.8 °F - 32.0 °F 93% 30.11 in 10.0 mi Calm Calm - N/A   Clear
7:45 AM 32.0 °F 28.7 °F 32.0 °F 100% 30.11 in 10.0 mi SSW 3.5 mph - N/A   Clear
8:50 AM 33.8 °F 30.8 °F 32.0 °F 93% 30.11 in 10.0 mi SW 3.5 mph - N/A   Clear
9:55 AM 39.2 °F - 33.8 °F 81% 30.12 in 10.0 mi Calm Calm - N/A   Overcast
10:45 AM 39.2 °F 37.0 °F 33.8 °F 81% 30.12 in - WSW 3.5 mph - N/A   Overcast
11:45 AM 42.8 °F 38.6 °F 33.8 °F 70% 30.09 in 10.0 mi WSW 6.9 mph - N/A   Clear
12:45 PM 44.6 °F 42.2 °F 35.6 °F 71% 30.06 in 10.0 mi WSW 4.6 mph - N/A   Clear
1:45 PM 46.4 °F - 35.6 °F 66% 30.02 in 10.0 mi Calm Calm - N/A   Clear
2:45 PM 44.6 °F 42.2 °F 35.6 °F 71% 30.02 in 10.0 mi SSW 4.6 mph - N/A   Clear
3:45 PM 46.4 °F 42.9 °F 35.6 °F 66% 30.03 in 10.0 mi SSW 6.9 mph - N/A   Clear
4:45 PM 48.2 °F - 35.6 °F 62% 30.03 in 10.0 mi South 3.5 mph - N/A   Clear
5:45 PM 42.8 °F 41.1 °F 33.8 °F 70% 30.03 in 10.0 mi South 3.5 mph - N/A   Clear
6:45 PM 46.4 °F 45.2 °F 35.6 °F 66% 30.04 in 10.0 mi SW 3.5 mph - N/A   Overcast
7:50 PM 41.0 °F 38.0 °F 35.6 °F 81% 30.04 in 10.0 mi SSW 4.6 mph - N/A   Overcast
8:10 PM 44.6 °F - 35.6 °F 71% 30.03 in 10.0 mi Calm Calm - N/A   Overcast
8:30 PM 39.2 °F - 35.6 °F 87% 30.04 in 10.0 mi Calm Calm - N/A   Mostly Cloudy
8:50 PM 41.0 °F - 35.6 °F 81% 30.04 in 10.0 mi Calm Calm - N/A   Mostly Cloudy
9:10 PM 39.2 °F - 35.6 °F 87% 30.04 in 10.0 mi Calm Calm - N/A   Mostly Cloudy
9:30 PM 37.4 °F - 33.8 °F 87% 30.04 in 10.0 mi Calm Calm - N/A   Mostly Cloudy
9:50 PM 37.4 °F - 35.6 °F 93% 30.04 in 10.0 mi Calm Calm - N/A   Scattered Clouds
10:10 PM 37.4 °F - 33.8 °F 87% 30.05 in 10.0 mi Calm Calm - N/A   Scattered Clouds
10:30 PM 37.4 °F - 35.6 °F 93% 30.04 in 10.0 mi Calm Calm - N/A   Scattered Clouds
10:50 PM 37.4 °F - 35.6 °F 93% 30.04 in 10.0 mi Calm Calm - N/A   Clear
11:10 PM 37.4 °F - 33.8 °F 87% 30.04 in 10.0 mi Calm Calm - N/A   Clear
11:30 PM 37.4 °F - 35.6 °F 93% 30.03 in 10.0 mi Calm Calm - N/A   Clear
11:50 PM 37.4 °F - 35.6 °F 93% 30.03 in 10.0 mi Calm Calm - N/A   Clear